Home   Weather   India   Thiruvananthapuram   Past weeks
Flag for India

Past Weather in Thiruvananthapuram, Kerala, India — Yesterday and Last 2 Weeks

Currently: 88 °F. Scattered clouds. (Weather station: Thiruvananthapuram, India). See more current weather

Past Weather in Thiruvananthapuram — Graph

°F

Thiruvananthapuram Temperature Yesterday

Maximum temperature yesterday: 90 °F (at 1:30 pm)
Minimum temperature yesterday: 81 °F (at 1:00 am)
Average temperature yesterday: 84 °F

High & Low Weather Summary for the Past Weeks

 TemperatureHumidityPressure
High90 °F (Jun 9, 3:00 pm)100% (Jun 6, 8:30 pm)29.92 "Hg (Jun 6, 8:30 pm)
Low75 °F (Jun 14, 4:30 am)66% (Jun 11, 11:00 am)29.71 "Hg (Jun 10, 3:00 pm)
Average83 °F87%29.80 "Hg
* Reported Jun 6 9:30 am — Jun 21 9:30 am, Thiruvananthapuram. Weather by CustomWeather, © 2021

Note: Actual official high and low records may vary slightly from our data, if they occured in-between our weather recording intervals... More about our weather records

Thiruvananthapuram Weather History for the Previous 24 Hours

Scroll right to see more
 ConditionsComfort  
Time TempWeatherWind HumidityBarometerVisibility
9:30 am
Mon, Jun 21
88 °FScattered clouds.7 mph75%29.86 "Hg4 mi
9:00 am86 °FScattered clouds.7 mph79%29.89 "Hg3 mi
8:30 am84 °FScattered clouds.7 mph84%29.86 "Hg3 mi
8:00 am82 °FScattered clouds.7 mph89%29.86 "Hg2 mi
7:30 am82 °FScattered clouds.9 mph89%29.86 "Hg2 mi
7:00 am81 °FFog.7 mph94%29.86 "Hg2 mi
6:30 am81 °FFog.6 mph94%29.86 "Hg2 mi
6:00 am81 °FFog.6 mph94%29.83 "Hg2 mi
5:30 am81 °FFog.6 mph94%29.83 "Hg2 mi
5:00 am81 °FFog.7 mph94%29.83 "Hg2 mi
4:30 am81 °FFog.6 mph94%29.83 "Hg2 mi
4:00 am81 °FFog.7 mph94%29.83 "Hg2 mi
3:30 am81 °FFog.7 mph94%29.83 "Hg2 mi
3:00 am81 °FPartly cloudy.7 mph94%29.83 "Hg2 mi
2:30 am81 °FFog.7 mph94%29.83 "Hg2 mi
2:00 am82 °FFog.6 mph89%29.83 "Hg2 mi
1:30 am82 °FFog.8 mph89%29.83 "Hg2 mi
1:00 am82 °FFog.6 mph89%29.83 "Hg2 mi
12:30 am82 °FFog.5 mph94%29.86 "Hg2 mi
12:00 am82 °FFog.6 mph94%29.86 "Hg2 mi
11:30 pm
Sun, Jun 20
82 °FFog.8 mph89%29.86 "Hg2 mi
11:00 pm84 °FFog.7 mph84%29.86 "Hg2 mi
10:30 pm84 °FFog.12 mph84%29.86 "Hg2 mi
10:00 pm84 °FFog.12 mph84%29.86 "Hg2 mi
9:30 pm84 °FFog.12 mph84%29.86 "Hg2 mi
9:00 pm84 °FFog.12 mph84%29.86 "Hg2 mi
8:30 pm84 °FHaze.12 mph84%29.86 "Hg2 mi
8:00 pm84 °FHaze.12 mph84%29.83 "Hg2 mi
7:30 pm84 °FHaze.12 mph84%29.83 "Hg2 mi
7:00 pm84 °FHaze.12 mph84%29.83 "Hg3 mi
6:30 pm84 °FHaze.12 mph84%29.83 "Hg3 mi
6:00 pm86 °FPassing clouds.12 mph79%29.80 "Hg4 mi
5:30 pm86 °FPassing clouds.12 mph79%29.80 "Hg4 mi
5:00 pm88 °FPassing clouds.12 mph75%29.80 "Hg4 mi
4:30 pm88 °FPassing clouds.12 mph75%29.80 "Hg4 mi
4:00 pm88 °FPassing clouds.12 mph75%29.80 "Hg4 mi
3:30 pm88 °FPassing clouds.12 mph75%29.80 "Hg4 mi
3:00 pm88 °FPassing clouds.12 mph75%29.80 "Hg4 mi
2:30 pm88 °FPassing clouds.12 mph75%29.83 "Hg4 mi
2:00 pm88 °FPassing clouds.12 mph75%29.83 "Hg4 mi
1:30 pm90 °FPassing clouds.12 mph71%29.86 "Hg4 mi
1:00 pm88 °FScattered clouds.14 mph75%29.86 "Hg4 mi
12:30 pm88 °FScattered clouds.14 mph75%29.86 "Hg4 mi
12:00 pm88 °FScattered clouds.12 mph75%29.89 "Hg4 mi
11:30 am88 °FScattered clouds.12 mph75%29.89 "Hg4 mi
11:00 am88 °FScattered clouds.12 mph75%29.89 "Hg4 mi
10:30 am88 °FScattered clouds.12 mph75%29.89 "Hg4 mi
10:00 am88 °FScattered clouds.14 mph75%29.92 "Hg4 mi
Weather by CustomWeather, © 2021

See weather overview